User: anonymous   Login
Location: Cranbrook Institute of Science
(42.5830°N, 83.2450°W)
Time: 06:05:16
(UTC-04:00)
Language:

CZ-4B R/B - Orbit

View from above orbital plane
View from above orbital plane
View from above satellite
View from above satellite

Ground track
Ground track

The orbit data is extracted from the following two-line orbital elements,

1 29093U 06015B   16151.84024058  .00004289  00000-0  11353-3 0  9999
2 29093  97.4831 248.8809 0068048 249.0924 110.3027 15.36604248558755
Epoch (UTC): 30 May 2016 20:09:56
Eccentricity: 0.0068048
inclination: 97.4831°
perigee height: 409 km
apogee height: 502 km
right ascension of ascending node: 248.8809°
argument of perigee: 249.0924°
revolutions per day: 15.36604248
mean anomaly at epoch: 110.3027°
orbit number at epoch: 55875

The dashed part of the orbit path shows where the satellite is in the earth's shadow,  

DLR